CAPE
0 0 0 0 0 0 0 0 0 0 0 0 0 0 6 54 108 87 82 292 301 398 403 511 746 444 390 698 857 781 783 615 257 43 276 618 475 233 136 264 353 54 22 23 15 11 6 3 2
0 0 0 0 0 0 0 0 0 0 0 0 0 0 6 47 87 60 75 272 304 295 297 401 479 563 572 723 660 645 623 518 28 113 417 733 461 176 45 25 39 29 19 14 11 7 5 1 0
0 0 0 0 0 0 0 0 0 0 0 0 0 0 17 23 53 49 87 201 175 229 291 277 453 628 667 651 565 441 328 336 259 175 348 388 312 266 34 17 16 18 7 17 15 9 5 0 0
0 0 0 0 0 0 0 0 0 0 0 0 0 0 0 9 42 36 72 124 203 244 142 301 429 582 623 630 491 15 32 35 13 137 180 314 118 56 30 18 15 10 15 18 12 6 1 0 0
0 0 0 0 0 0 0 0 0 0 0 0 0 0 0 1 0 1 41 54 131 151 93 168 397 526 539 591 454 275 150 154 62 78 96 68 51 38 21 7 9 7 7 6 4 1 0 0 0
0 0 0 0 0 0 0 0 0 0 0 0 0 0 0 6 2 1 61 73 69 88 89 86 154 211 355 366 354 267 95 55 66 68 73 60 46 14 6 4 3 2 2 2 0 0 0 0 0
0 0 0 0 0 0 0 0 0 0 0 0 0 0 0 2 2 1 5 3 11 62 64 23 50 48 52 9 12 21 24 35 45 85 57 45 43 28 12 12 2 1 0 0 0 0 0 0 0
0 0 0 0 0 0 0 0 0 0 0 0 0 0 0 0 3 8 4 6 3 22 48 18 0 0 2 0 0 0 4 12 35 26 22 0 0 0 0 0 3 0 0 0 0 0 0 0 0
0 0 0 0 0 0 0 0 0 0 0 0 0 0 0 0 10 7 6 3 5 8 20 15 1 0 0 0 0 0 0 0 6 9 2 2 0 0 0 0 0 0 0 0 0 0 0 0 0
0 0 0 0 0 0 0 0 0 0 0 0 0 0 0 0 12 11 7 6 6 6 19 24 8 2 0 0 0 0 0 0 0 0 1 3 1 0 0 0 0 0 0 0 0 0 0 0 0
0 0 0 0 0 0 0 0 0 0 0 0 0 0 0 9 5 6 6 0 0 0 9 18 14 2 0 0 0 0 0 0 0 0 1 0 0 0 0 0 0 0 0 0 0 0 0 0 0
0 0 0 0 0 0 0 0 0 0 0 0 0 0 0 0 6 3 1 4 0 0 10 17 6 0 0 0 0 0 0 0 0 0 0 0 0 0 0 0 0 0 0 0 0 0 0 0 0
0 0 0 0 0 0 0 0 0 0 0 0 0 0 0 1 6 4 0 1 0 0 4 10 14 2 0 0 0 0 0 0 0 0 0 0 0 0 0 0 0 0 0 0 0 0 0 0 0
0 0 0 0 0 0 0 0 0 0 0 0 0 0 0 0 0 4 1 0 2 0 0 8 24 10 0 0 0 0 0 0 0 0 0 0 0 0 0 0 0 0 0 0 0 0 0 0 0
0 0 0 0 0 0 0 0 0 0 0 0 0 0 0 0 0 0 1 0 0 0 0 0 9 5 1 0 0 0 0 0 0 0 0 0 0 0 0 0 0 0 0 0 0 0 0 0 1
0 0 0 0 0 0 0 0 0 0 0 0 0 0 0 0 0 0 0 0 0 0 0 0 4 3 1 0 0 0 0 0 0 0 0 0 0 0 0 0 0 0 0 0 0 0 0 0 1
0 0 0 0 0 0 0 0 0 0 0 0 0 0 0 0 0 0 0 0 0 0 0 0 0 1 1 0 0 0 0 0 0 0 0 0 0 0 0 0 1 0 0 0 0 0 0 3 1
0 0 0 0 0 0 0 0 0 0 0 0 0 0 0 0 0 0 0 0 0 0 0 0 0 0 0 0 0 0 0 0 0 0 0 0 0 0 0 0 0 0 0 0 0 0 1 12 12
0 0 0 0 0 0 0 0 0 0 0 0 0 0 0 0 0 0 0 0 0 0 0 0 0 0 0 0 0 0 0 0 0 0 0 0 0 0 0 0 0 0 0 0 0 1 13 27 12
17 9 1 0 0 0 0 0 0 0 0 0 0 0 0 0 0 0 0 0 0 0 0 0 0 0 0 0 0 0 0 0 0 0 0 0 0 0 0 0 0 0 0 0 2 7 23 15 7
11 1 3 0 0 0 0 0 0 0 0 0 0 0 0 0 0 0 0 0 0 0 0 0 0 0 0 0 0 0 0 0 0 0 0 0 0 0 0 0 0 0 0 7 7 16 19 12 2
37 17 24 0 0 0 0 0 0 0 0 0 0 0 0 0 0 0 0 0 0 0 0 0 0 0 0 0 0 0 0 0 0 0 0 0 0 0 0 0 0 1 4 12 13 9 15 10 4
24 34 10 0 0 0 0 0 0 0 0 0 0 0 0 0 0 0 0 0 0 0 0 0 0 0 0 0 0 0 0 0 0 0 0 0 0 0 0 0 0 0 2 13 15 10 12 4 0
0 0 0 0 0 0 0 0 0 0 0 0 0 0 0 0 0 0 0 0 0 0 0 0 0 0 0 0 0 0 0 0 0 0 0 0 0 0 0 0 0 0 0 2 4 0 0 0 0
27 25 1 7 9 1 0 0 0 0 0 0 0 0 0 0 0 0 0 0 0 0 0 0 0 0 0 0 0 0 0 0 0 0 0 0 0 0 0 0 0 0 0 1 0 0 0 0 0
17 30 5 0 0 0 0 0 0 0 0 0 0 0 0 0 0 0 0 0 0 0 0 0 0 0 0 0 0 0 0 0 0 0 0 0 0 0 0 0 0 0 0 0 0 0 0 0 0
19 50 0 0 0 0 0 0 0 0 0 0 0 0 0 0 0 0 0 0 0 0 0 0 0 0 0 0 0 0 0 0 0 0 0 0 0 0 0 0 0 0 0 0 0 0 0 0 0
9 0 2 0 0 0 0 0 0 0 0 0 0 0 0 0 0 0 0 0 0 0 0 0 0 0 0 0 0 0 0 0 0 0 0 4 0 0 0 0 0 0 0 0 0 0 0 0 0
0 6 4 0 0 0 0 0 0 0 0 0 0 0 0 0 0 0 0 0 0 0 0 0 0 0 0 0 0 0 0 0 0 0 4 10 0 0 0 0 0 0 0 0 0 0 0 0 0
0 0 0 0 0 0 0 0 0 0 0 0 0 0 0 0 0 0 0 0 0 0 0 0 0 0 0 0 0 0 0 0 0 1 10 2 0 0 0 0 0 0 0 0 0 0 0 0 0
CIN
0 0 0 0 0 0 0 0 0 0 0 0 0 0 -38 -84 -38 -27 -27 -35 -57 -34 -42 -33 -1 -40 -32 0 0 0 0 0 -19 -143 -10 0 -1 -24 -48 -29 -15 -26 0 0 0 0 0 0 0
0 0 0 0 0 0 0 0 0 0 0 0 0 0 -3 -63 -91 -92 -32 -13 -26 -44 -41 -28 -21 -4 -2 0 0 0 0 0 -88 -75 -1 0 -5 -38 -145 0 -58 -20 0 0 0 0 0 0 0
0 0 0 0 0 0 0 0 0 0 0 0 0 0 -22 -62 -90 -84 -19 -22 -26 -24 -32 -45 -12 0 0 0 -2 -8 -14 -14 -31 -49 -9 -4 -18 -27 -1 0 0 0 0 0 0 0 0 0 0
0 0 0 0 0 0 0 0 0 0 0 0 0 0 0 -48 -72 -86 -41 -26 -16 -34 -108 -18 -7 0 0 0 -6 -66 -15 -183 -2 -50 -38 -10 -50 -138 -2 0 0 0 0 0 0 0 0 0 0
0 0 0 0 0 0 0 0 0 0 0 0 0 0 0 -3 0 -1 -90 -51 -30 -54 -92 -73 -5 -1 -1 0 -4 -23 -49 -65 -142 -119 -72 -112 -57 -4 0 0 0 0 0 0 0 0 0 0 0
0 0 0 0 0 0 0 0 0 0 0 0 0 0 0 -8 -1 -7 -49 -26 -18 -80 -72 -69 -86 -43 -18 -18 -7 -18 -73 -60 -135 -117 -129 -72 -7 -1 0 0 0 0 0 0 0 0 0 0 0
0 0 0 0 0 0 0 0 0 0 0 0 0 0 0 -7 -2 -3 -12 -10 -7 -64 -66 -108 -98 -97 -91 -135 -42 -14 -9 -8 -12 -89 -22 -14 -2 0 0 0 0 0 0 0 0 0 0 0 0
0 0 0 0 0 0 0 0 0 0 0 0 0 0 0 0 -10 -22 -29 -27 -20 -33 -45 -86 0 0 -20 0 0 0 -25 -28 -30 -26 -47 0 0 0 0 0 0 0 0 0 0 0 0 0 0
0 0 0 0 0 0 0 0 0 0 0 0 0 0 0 0 -17 -18 -30 -31 -19 -6 -25 -18 -8 0 0 0 0 0 0 0 -28 -32 -40 -15 0 0 0 0 0 0 0 0 0 0 0 0 0
0 0 0 0 0 0 0 0 0 0 0 0 0 0 0 0 -10 -15 -22 -29 -20 -17 -28 -20 -10 -4 0 0 0 0 0 0 -6 0 -29 -49 -7 0 0 0 0 0 0 0 0 0 0 0 0
0 0 0 0 0 0 0 0 0 0 0 0 0 0 0 -5 -4 -13 -14 -24 -3 0 -31 -30 -13 -6 0 0 0 0 0 0 0 0 -14 -3 0 0 0 0 0 0 0 0 0 0 0 0 0
0 0 0 0 0 0 0 0 0 0 0 0 0 0 0 0 -4 -5 -12 -2 0 0 -18 -20 -6 -6 0 0 0 0 0 0 0 0 0 0 0 0 0 0 0 0 0 0 0 0 0 0 0
0 0 0 0 0 0 0 0 0 0 0 0 0 0 0 0 -2 -5 -5 -6 0 0 -5 -10 -5 -7 0 0 0 0 0 0 0 0 0 0 0 0 0 0 0 0 0 0 0 0 0 0 0
0 0 0 0 0 0 0 0 0 0 0 0 0 0 0 0 0 -6 -3 0 -6 0 0 -36 -9 -16 0 0 0 0 0 0 0 0 0 0 0 0 0 0 0 0 0 0 0 0 0 0 0
0 0 0 0 0 0 0 0 0 0 0 0 0 0 0 0 0 -5 -1 0 -1 0 0 0 -24 -25 -4 0 0 0 0 0 0 0 0 0 0 0 0 0 0 0 0 0 0 0 0 -6 -7
0 0 0 0 0 0 0 0 0 0 0 0 0 0 0 0 0 0 -1 0 0 0 0 0 -33 -31 -14 0 0 0 0 0 0 0 0 0 0 0 0 0 0 0 0 0 0 0 0 -13 -7
0 0 0 0 0 0 0 0 0 0 0 0 0 0 0 0 0 0 0 0 0 0 0 0 0 -28 -23 0 0 0 0 0 0 0 0 0 0 0 0 0 -10 -2 0 0 0 0 0 -23 -15
0 0 -1 0 0 0 0 0 0 0 0 0 0 0 0 0 0 0 0 0 0 0 0 0 0 0 0 0 0 0 0 0 0 0 0 0 0 0 0 0 0 0 0 0 0 0 -43 -25 -15
0 0 0 0 0 0 0 0 0 0 0 0 0 0 0 0 0 0 0 0 0 0 0 0 0 0 0 0 0 0 0 0 0 0 0 0 0 0 0 0 0 0 0 0 0 -55 -36 -23 -27
-18 -6 -3 0 0 0 0 0 0 0 0 0 0 0 0 0 0 0 0 0 0 0 0 0 0 0 0 0 0 0 0 0 0 0 0 0 0 0 0 0 0 0 0 0 -88 -85 -32 -45 -41
-22 -3 -3 0 0 0 0 0 0 0 0 0 0 0 0 0 0 0 0 0 0 0 0 0 0 0 0 0 0 0 0 0 0 0 0 0 0 0 0 0 0 0 0 -99 -103 -83 -61 -40 -64
-2 -21 -33 0 0 0 0 0 0 0 0 0 0 0 0 0 0 0 0 0 0 0 0 0 0 0 0 0 0 0 0 0 0 0 0 0 0 0 0 0 0 -73 -112 -88 -73 -74 -65 -54 -52
-9 -17 -19 0 0 0 0 0 0 0 0 0 0 0 0 0 0 0 0 0 0 0 0 0 0 0 0 0 0 0 0 0 0 0 0 0 0 0 0 0 0 0 -89 -84 -63 -88 -79 -82 -22
0 0 0 0 0 0 0 0 0 0 0 0 0 0 0 0 0 0 0 0 0 0 0 0 0 0 0 0 0 0 0 0 0 0 0 0 0 0 0 0 0 0 0 -89 -105 -12 -10 -46 0
-28 -17 -14 -22 -32 -2 0 0 0 0 0 0 0 0 0 0 0 0 0 0 0 0 0 0 0 0 0 0 0 0 0 0 0 0 0 0 0 0 0 0 0 0 -6 -116 0 0 0 0 0
-8 -6 -19 0 0 0 0 0 0 0 0 0 0 0 0 0 0 0 0 0 0 0 0 0 0 0 0 0 0 0 0 0 0 0 0 0 0 0 0 0 0 0 0 0 0 0 0 0 0
-5 -1 0 0 0 0 0 0 0 0 0 0 0 0 0 0 0 0 0 0 0 0 0 0 0 0 0 0 0 0 0 0 0 0 0 0 0 0 0 0 0 0 0 0 0 0 0 0 0
-39 0 -7 -3 0 0 0 0 0 0 0 0 0 0 0 0 0 0 0 0 0 0 0 0 0 0 0 0 0 0 0 0 0 0 0 -204 0 0 0 0 0 0 0 0 0 0 0 0 0
-12 -11 -8 0 0 0 0 0 0 0 0 0 0 0 0 0 0 0 0 0 0 0 0 0 0 0 0 0 0 0 0 0 0 0 -287 -257 0 0 0 0 0 0 0 0 0 0 0 0 0
0 0 0 0 0 0 0 0 0 0 0 0 0 0 0 0 0 0 0 0 0 0 0 0 0 0 0 0 0 0 0 0 0 -185 -268 -265 0 0 0 0 0 0 0 0 0 0 0 0 0
Wind_Speed
12 13 5 2 1 2 6 4 5 7 4 2 7 7 11 10 5 5 5 14 14 12 11 10 12 12 11 11 12 12 13 12 12 12 13 15 17 18 17 18 16 18 19 19 19 19 19 18 17
7 10 2 3 1 4 1 8 4 9 7 7 4 2 3 6 7 7 5 15 14 12 10 11 12 11 11 11 12 12 12 12 12 13 11 16 18 18 17 17 16 16 17 17 18 17 17 17 16
9 6 2 2 3 5 3 1 12 10 6 5 4 4 6 4 9 8 7 17 12 8 13 11 11 11 10 11 12 13 11 11 12 10 12 16 18 18 18 17 17 15 15 16 16 16 16 16 16
4 2 4 2 6 8 4 7 13 8 1 4 2 9 6 6 5 7 9 13 12 11 13 10 11 11 11 11 12 12 12 12 11 12 14 17 17 17 18 17 16 15 15 15 15 15 15 15 14
2 3 3 4 10 4 6 7 10 8 8 6 1 6 5 7 6 8 12 9 13 13 12 10 10 10 8 13 13 12 11 11 12 10 13 16 17 17 16 15 15 14 14 14 14 14 13 13 13
3 2 3 7 10 4 4 5 2 7 7 6 2 8 5 9 7 6 14 13 12 15 13 9 10 10 13 14 12 12 12 11 11 10 13 15 17 15 14 14 13 12 12 12 13 13 12 11 11
3 2 5 8 7 6 4 4 3 6 5 6 4 4 6 8 9 8 8 8 10 15 12 9 8 10 12 12 12 12 10 10 8 12 16 15 14 12 13 11 11 11 11 11 11 11 11 10 10
4 3 8 8 5 2 5 5 7 7 5 6 3 2 7 11 9 2 8 7 7 12 11 10 8 8 9 7 11 11 11 11 11 13 14 12 11 11 11 9 9 9 10 9 8 8 7 7 6
8 4 4 9 5 5 5 4 3 2 7 1 3 7 11 16 9 6 7 6 3 6 12 9 10 9 10 9 7 9 10 10 11 9 10 11 5 7 7 7 8 8 7 7 5 4 2 2 1
1 4 6 6 7 7 6 2 7 2 5 3 6 7 16 12 11 10 9 8 5 3 10 9 8 9 11 8 7 6 7 5 5 5 6 4 6 5 6 6 6 6 5 4 3 2 2 4 3
6 7 5 6 7 8 4 2 4 3 5 6 11 11 13 10 10 12 10 10 8 6 7 9 6 6 9 9 5 4 3 4 5 7 5 6 5 4 4 3 3 3 5 3 3 1 1 3 3
3 13 8 1 2 2 3 7 2 5 0 2 4 17 14 15 11 12 11 13 12 9 8 9 8 8 7 5 5 5 4 4 3 4 5 3 3 3 4 3 4 4 3 2 1 2 1 2 2
12 12 2 5 4 6 1 1 4 7 4 6 9 15 15 14 12 10 13 11 9 11 8 9 8 7 7 6 4 5 5 4 4 4 4 4 4 3 2 3 3 3 2 2 2 2 1 1 2
5 13 5 7 8 3 3 2 6 3 4 7 10 8 12 13 14 11 11 12 13 10 8 9 7 6 7 5 5 5 5 5 5 5 5 5 5 4 4 3 3 2 1 2 3 2 1 1 2
12 6 11 7 6 5 4 8 7 4 3 4 8 9 9 11 13 14 12 12 10 12 10 9 7 6 4 7 6 5 5 4 4 5 7 6 5 5 5 4 3 3 2 1 1 2 2 2 1
5 7 10 10 9 8 10 11 16 10 3 6 8 9 10 11 13 12 11 12 9 11 11 8 5 6 5 7 6 4 5 4 5 5 5 6 5 6 3 3 3 4 3 3 2 1 3 3 1
7 6 12 8 10 4 9 7 14 12 6 5 7 6 11 10 11 13 14 11 9 12 14 11 10 8 6 4 4 6 7 4 4 4 5 7 6 5 5 4 4 5 3 2 1 1 2 1 2
7 9 8 14 8 10 11 13 9 5 7 8 7 7 6 10 15 11 12 11 11 11 13 14 11 12 9 5 4 5 5 5 5 5 5 8 6 7 4 4 4 4 3 3 2 2 2 2 1
11 8 15 6 8 8 12 16 12 12 8 8 8 8 8 7 10 15 12 14 11 11 12 15 15 13 10 9 6 5 6 6 5 5 8 9 8 7 6 4 5 5 5 5 5 3 4 2 2
11 8 11 8 5 1 8 14 14 12 10 12 14 10 10 8 8 11 14 14 12 14 14 13 16 16 14 11 11 7 8 7 7 5 7 8 8 8 7 6 6 6 3 4 5 4 2 1 2
16 10 6 7 4 2 5 9 14 12 13 13 14 13 10 10 11 10 14 17 14 14 15 15 16 17 15 15 8 6 4 4 5 7 7 9 10 11 9 8 6 6 6 5 5 5 6 4 1
17 9 6 5 4 4 6 7 8 9 17 18 17 15 15 16 9 9 14 15 16 16 14 16 16 16 15 14 12 13 11 11 9 8 7 7 9 9 10 9 7 8 6 6 6 6 5 4 4
4 13 11 5 2 2 3 4 4 9 14 15 16 21 20 18 14 13 12 19 19 17 16 16 17 17 17 16 15 12 12 9 6 6 8 10 10 11 12 12 11 9 6 7 7 6 5 4 3
8 7 8 5 0 7 10 7 6 9 14 8 9 10 11 16 18 16 12 12 16 16 15 15 17 19 18 18 19 16 16 12 9 9 8 8 7 9 11 11 10 10 9 8 8 6 6 5 3
9 10 3 5 6 11 9 11 13 12 11 7 8 9 9 8 14 13 11 9 13 17 18 17 18 20 18 19 19 20 17 17 16 13 11 10 9 8 11 13 13 10 11 9 8 7 6 6 5
21 18 6 9 6 6 1 8 6 19 19 10 9 7 7 5 6 10 11 10 10 15 18 20 20 20 19 19 20 17 18 12 12 14 11 11 11 11 13 13 11 10 11 10 9 6 5 6 5
10 14 5 4 1 3 6 6 7 9 8 7 8 8 7 7 6 3 5 6 9 9 12 15 17 17 16 18 16 17 16 18 15 16 12 10 11 9 11 11 10 8 6 8 9 8 8 7 5
10 8 4 2 6 5 5 6 5 5 9 6 2 5 7 5 2 5 6 5 3 7 8 8 9 13 14 14 14 15 16 16 16 12 14 14 12 12 13 13 11 11 10 10 9 6 7 11 7
7 13 6 5 4 4 2 5 5 6 4 7 6 5 5 4 3 4 3 3 6 4 6 8 9 10 10 12 14 14 14 16 14 15 13 14 10 13 14 14 13 12 12 12 11 10 9 10 10
8 12 8 6 5 2 5 7 2 9 7 7 8 7 4 3 1 1 2 3 3 4 4 5 5 6 7 7 8 9 9 9 11 13 13 8 11 11 12 12 11 11 12 13 13 13 13 13 13
Wind_Direction
320 321 305 341 1 199 259 111 92 114 116 45 28 23 86 40 28 103 164 108 121 124 118 112 106 103 107 99 97 103 97 97 99 101 98 107 100 86 83 79 85 86 78 77 73 73 72 71 71
308 309 259 268 227 256 339 117 148 91 90 92 92 323 50 78 70 97 100 130 120 123 134 116 108 109 103 98 94 96 98 102 111 110 101 100 99 97 88 80 73 76 80 78 73 73 72 70 69
284 273 304 220 226 253 61 91 100 92 130 152 97 27 27 79 109 148 139 124 117 109 103 116 116 115 111 104 100 101 97 103 108 109 108 102 91 94 90 82 74 76 83 78 76 72 70 68 66
340 270 279 279 251 242 45 90 107 115 71 358 86 89 75 14 93 135 153 110 108 105 107 113 118 118 121 113 108 108 107 108 117 88 85 92 96 83 83 84 81 77 73 74 75 73 72 68 62
213 260 250 224 263 68 52 29 130 165 149 161 266 124 84 70 83 148 107 124 133 119 119 121 115 110 119 122 112 108 106 110 106 105 99 91 92 90 88 88 86 83 80 78 76 74 71 67 61
302 254 238 234 222 133 94 107 166 158 123 72 143 108 112 110 149 185 150 177 138 126 120 126 111 97 110 117 113 101 106 94 91 93 89 92 89 94 96 95 93 88 84 80 78 75 74 70 60
280 297 261 261 250 129 138 106 205 146 129 164 356 110 113 148 166 185 195 142 133 121 125 129 121 103 100 102 100 97 109 97 82 100 93 83 87 92 93 93 95 90 85 80 76 72 72 70 60
301 251 279 271 274 87 98 121 340 137 127 74 5 135 163 164 180 209 85 80 98 126 133 138 131 133 118 109 103 105 91 97 89 99 104 103 105 107 105 90 88 93 86 78 76 76 77 79 75
321 261 246 252 263 88 124 127 330 298 114 25 78 45 114 140 160 109 105 95 92 143 136 138 155 152 132 123 116 103 103 111 100 117 134 147 147 119 87 90 92 97 93 87 88 89 123 130 164
222 257 245 0 15 25 117 252 144 156 134 145 99 72 112 141 159 147 153 139 148 179 140 149 163 158 141 132 155 137 139 152 154 165 186 216 84 103 107 111 119 115 126 142 149 192 262 238 214
206 250 301 55 19 5 23 202 114 190 191 195 170 146 139 161 176 159 168 158 163 197 141 149 195 159 136 145 166 144 168 174 162 182 190 111 113 132 156 151 164 168 199 221 205 228 42 54 38
280 237 230 270 45 27 20 335 121 208 282 55 180 152 150 177 192 167 177 176 170 203 151 171 180 150 143 158 146 160 155 147 160 155 150 132 156 178 165 166 168 183 160 154 67 107 158 21 90
274 273 193 126 188 96 173 322 353 306 210 112 106 144 155 179 187 184 190 174 172 187 170 186 175 170 150 156 167 155 153 152 170 145 161 162 146 179 179 161 178 146 179 149 148 114 101 51 27
276 229 207 168 203 127 101 8 10 37 327 111 131 158 159 175 188 195 199 189 180 174 221 173 178 176 152 160 183 157 144 171 154 157 178 187 159 176 157 180 162 164 125 99 88 80 8 260 169
206 266 266 189 240 197 103 299 253 247 58 210 171 170 170 178 182 203 195 197 186 172 205 176 157 176 198 181 164 152 155 164 153 169 168 187 181 181 166 175 169 164 113 95 205 246 250 293 62
196 223 239 191 205 227 135 243 251 258 156 243 206 185 172 179 181 198 194 203 182 160 187 153 143 188 229 177 160 159 161 159 177 169 160 180 199 168 196 160 177 151 165 197 160 13 4 8 15
193 208 224 224 186 139 187 234 232 231 166 250 279 217 174 174 177 202 190 200 188 169 174 181 166 176 196 248 169 164 161 175 189 173 168 177 194 190 177 179 179 138 195 164 94 297 144 303 342
181 215 219 216 215 201 205 232 251 242 170 202 235 276 229 176 182 190 182 196 213 171 173 182 183 176 178 190 248 168 169 183 185 180 183 174 179 194 176 179 172 168 159 163 186 211 266 200 228
228 212 218 206 226 185 224 238 226 238 239 234 231 223 251 225 179 183 183 194 202 173 179 179 183 191 179 192 209 185 192 185 197 186 184 182 173 174 186 193 191 184 180 188 185 191 230 203 101
250 229 216 234 54 236 246 244 244 247 243 247 254 242 212 216 200 176 182 187 196 183 182 190 181 189 193 194 199 196 190 192 195 186 187 177 169 176 192 182 194 186 172 186 187 197 195 163 159
230 213 217 233 122 316 2 274 262 254 250 237 238 235 231 207 200 184 181 189 196 196 189 183 190 190 198 197 194 197 177 190 193 197 197 192 183 182 179 187 190 180 177 197 191 199 207 182 151
215 181 216 115 133 224 167 280 238 240 238 238 238 239 239 221 207 192 184 190 195 199 198 191 190 196 200 192 196 198 201 202 203 199 191 191 193 180 184 188 186 196 188 193 194 199 205 171 166
257 194 205 165 175 55 209 265 259 227 246 242 228 227 227 225 211 204 195 192 194 191 199 198 197 197 198 196 200 200 207 202 192 200 187 189 192 192 196 193 192 188 196 204 189 181 186 189 153
137 86 60 63 326 241 209 202 221 232 238 233 245 230 213 216 221 205 203 190 191 193 195 201 204 205 199 198 203 205 205 199 195 197 196 192 191 198 202 195 192 197 195 192 189 184 175 183 190
145 152 144 198 216 248 169 204 241 275 269 250 290 288 267 218 214 204 201 194 190 190 194 199 204 210 205 202 203 209 208 203 202 197 199 188 191 194 198 193 199 193 194 182 165 166 173 183 176
182 176 157 198 203 208 278 233 244 217 246 259 252 265 259 289 259 198 198 195 199 201 198 198 202 211 205 206 210 206 213 211 208 204 200 200 194 195 196 200 200 203 180 167 163 157 156 152 150
173 203 194 100 122 61 198 256 301 230 251 244 255 249 258 262 245 258 235 210 197 192 203 204 210 217 211 212 211 209 210 213 214 212 206 200 195 191 189 190 185 164 158 154 155 166 154 144 148
183 139 171 262 159 225 242 227 228 195 228 240 220 223 229 238 259 208 209 220 222 194 194 203 209 215 218 219 214 216 212 214 217 214 213 209 195 181 180 186 176 166 163 161 154 154 157 151 148
177 183 210 172 199 183 150 248 210 145 136 119 89 65 51 49 25 13 24 261 226 224 206 207 203 206 216 214 221 217 217 214 210 214 213 212 191 185 181 177 172 173 169 168 162 158 162 154 151
204 181 197 187 210 195 126 272 56 137 136 136 142 143 138 93 32 321 317 313 318 235 249 246 244 225 219 210 212 221 219 216 213 217 220 202 190 179 177 169 173 174 177 174 167 166 171 165 164